Regional Weather Roundup
Issued by NWS Cleveland, OH

Home | Current Version | Previous Version | Graphics & Text | Print | Product List | Glossary On
Versions: 1 2 3 4 5 6 7 8 9 10 11 12 13 14 15 16 17 18 19 20 21 22 23 24 25 26 27 28 29 30 31 32 33 34 35 36 37 38 39 40 41 42 43 44 45 46 47 48 49 50
000
ASUS41 KCLE 240112
RWRCLE
OHIO REGIONAL WEATHER ROUNDUP
NATIONAL WEATHER SERVICE WILMINGTON, OH
900 PM EDT MON OCT 23 2017

NOTE: "FAIR" INDICATES FEW OR NO CLOUDS BELOW 12,000 FEET WITH NO
SIGNIFICANT WEATHER AND/OR OBSTRUCTIONS TO VISIBILITY.

OHZ001>008-015>018-024>027-034-035-043-044-240200-
   NORTHWEST OHIO

CITY           SKY/WX    TMP DP  RH WIND       PRES   REMARKS
DEFIANCE       LGT RAIN  55  52  89 W9        29.55R
FINDLAY        LGT RAIN  57  52  83 SW15      29.56R
TOLEDO EXPRESS CLOUDY    57  56  96 SW14G22   29.50R
TOLEDO EXEC    CLOUDY    59  55  87 SW24G32   29.52R
LIMA           LGT RAIN  55  54  96 W15G24    29.59S
$$

OHZ009>014-019>023-028>033-038-089-240200-
   NORTHEAST OHIO

CITY           SKY/WX    TMP DP  RH WIND       PRES   REMARKS
CLE-HOPKINS    CLOUDY    60  56  86 S18G25    29.62R
CLE-LAKEFRONT  MOCLDY    60  54  80 SE17G28   29.58S
CUY CO. ARPT   CLOUDY    59  55  88 S14G23    29.62S
LORAIN-ELYRIA  CLOUDY    58  52  80 S16       29.61R
ASHTABULA      CLOUDY    58  56  93 S14       29.65F
AKRON-CANTON   RAIN      58  53  84 S20       29.66R
WOOSTER        CLOUDY    57  54  89 S13       29.63F
MANSFIELD      CLOUDY    57  55  93 S13       29.62F
YOUNGSTOWN     LGT RAIN  57  55  93 S10       29.69F
$$

OHZ042-051>053-060>062-070>072-077>081-240200-
  SOUTHWEST OHIO

CITY           SKY/WX    TMP DP  RH WIND       PRES   REMARKS
CINC-COVINGTON LGT RAIN  54  54 100 SW12      29.68R FOG
CINC-LUNKEN    CLOUDY    56  54  93 SW12      29.69R
HAMILTON       LGT RAIN  56  55  97 SW6       29.68R FOG
DAYTON         CLOUDY    56  56 100 W14       29.64R
WRIGHT-PAT AFB LGT RAIN  58  58 100 SW17      29.62S FOG
DAYTON GENERAL LGT RAIN  55  54  96 SW13G21   29.65R FOG
WILMINGTON     CLOUDY    55  55 100 SW16      29.65R
$$

OHZ036-037-039>041-045>050-054>059-063>069-073>076-082>088-240200-
  CENTRAL AND SOUTHEAST OHIO

CITY           SKY/WX    TMP DP  RH WIND       PRES   REMARKS
COLUMBUS       MOCLDY    58  56  93 S8        29.63F
OSU AIRPORT    CLOUDY    58  56  93 S9G18     29.62F
BOLTON FIELD   CLOUDY    56  55  95 S9        29.64F
RICKENBACK AFB CLOUDY    56  56  99 S9        29.63F
NEWARK         MOCLDY    58  54  86 SE6       29.65F
MARION         LGT RAIN  56  53  90 S12       29.61F
LANCASTER      CLOUDY    57  55  93 SE10      29.65F
ZANESVILLE     FAIR      57  54  89 S10       29.66F
NEW PHILLY     LGT RAIN  57  55  93 SE10      29.68F FOG
$$




USA.gov is the U.S. government's official web portal to all federal, state and local government web resources and services.